sat.trackr.live / text

‹ back to catalog

STARLINK-3749

NORAD 52313 · 2022-041BE

PAYLOAD ACTIVE UNKNOWN

§ Identity

Operator
Country
US
Launch date
2022-04-21
Launch site
AFETR
Launch vehicle
Mass (kg)
RCS (m²)

Purposes: comms

External: N2YO · Heavens-Above · Gunter

§ Orbital elements

Epoch: 2026-05-25T02:23:25.803744Z

Period
95.44 min
Inclination
53.2137°
Eccentricity
0.0001756
Mean motion
15.08847261 rev/d
Perigee alt
538.5 km
Apogee alt
540.9 km
Semi-major
6,917.9 km
B*
-6.1881e-5
RAAN
106.1026°
Arg perigee
78.4193°
Mean anomaly
281.6996°
Rev number
22,740

§ Raw data

STARLINK-37491 52313U 22041BE  26145.09960421 -.00001273  00000+0 -61881-4 0  99942 52313  53.2137 106.1026 0001756  78.4193 281.6996 15.08847261227402

JSON: /api/v1/satellites/52313 · /tle

For live sub-satellite position, see the globe view (requires WebGL).

§ Visibility from observer

Set your observer location to see the next 7 days of passes ≥ 10°. The values pass through the URL so the page stays shareable.

No JS? Fill the form by hand. The geolocation button needs JavaScript.